Hourly Weather Roundup
Issued by NWS Central Illinois

Home | Current Version | Previous Version | Text Only | Print | Product List | Glossary On
Versions: 1 2 3 4 5 6 7 8 9 10 11 12 13 14 15 16 17 18 19 20 21 22 23 24 25 26 27 28 29 30 31 32 33 34 35 36 37 38 39 40 41 42 43 44 45 46 47 48 49 50
000
NZUS43 KILX 200810
HWRILX

Area Weather Roundup
National Weather Service Lincoln IL
300 AM CDT SUN AUG 20 2017

NOTE:  "FAIR" indicates few or no clouds below 12,000 feet, with
       no sigificant weather and/or obstructions to visibility.


CITY           SKY/WX    TMP DP  RH WIND       PRES   REMARKS
Bloomington    CLEAR     67  62  84 SE7       30.01F
Champaign      CLEAR     65  62  90 E5        30.00F
Danville       CLEAR     62  61  97 E3        29.99S
Decatur        CLEAR     67  64  90 SE3       29.98F
Effingham      CLEAR     65  65 100 CALM      29.99F
Flora          MOCLDY    68  67  95 S3        29.99S
Galesburg      CLEAR     65  62  90 E3        29.97F
Jacksonville   CLEAR     65  63  94 CALM      29.96S
Lacon          CLEAR     65  61  86 CALM      29.97F
Lawrenceville  CLEAR     70  68  93 CALM      29.99S
Litchfield     PTCLDY    69  67  94 CALM      29.97F
$$


CITY           SKY/WX    TMP DP  RH WIND       PRES   REMARKS
Lincoln        CLEAR     64  64  99 CALM      29.98S
Macomb         CLEAR     64  63  96 SE5       29.97F
Mattoon        CLEAR     68  68 100 SE8       29.98F
Mt Carmel AP   CLEAR     65  64  96 CALM      29.99S
Olney-Noble AP CLEAR     66  64  93 CALM      30.00S
Paris AP       CLEAR     63  63 100 E3        30.02S
Peoria         CLEAR     71  64  78 SE6       29.98F
Pontiac        CLEAR     60  59  99 CALM      30.01S
Rantoul        CLEAR     67  64  90 E3        30.00S
Robinson       FOG       63  63 100 CALM      30.01S VSB 1/4
Springfield    CLEAR     71  67  87 SE6       29.97F
Taylorville    PTCLDY    69  68  97 SE6       29.97F
$$

...REGIONAL REPORTS...


CITY           SKY/WX    TMP DP  RH WIND       PRES   REMARKS
Chicago O`Hare CLEAR     66  56  70 S3        30.00S
Kankakee       CLEAR     61  59  94 CALM      30.02S
Moline         PTCLDY    65  59  81 E6        29.95F
Mount Sterling CLEAR     66  65  97 SE5       29.95F
Mount Vernon     N/A     71  69  93 NE3       29.98F
Pittsfield     CLEAR     66  65  96 CALM      29.96F
Quincy         CLOUDY    67  64  90 SE7       29.94F
Rockford       CLEAR     62  59  90 CALM      30.00S
$$


CITY           SKY/WX    TMP DP  RH WIND       PRES   REMARKS
Burlington     PTCLDY    70  66  87 S9        29.93F
Cedar Rapids   CLOUDY    65  63  93 SE6       29.93F
Des Moines     CLOUDY    71  61  70 S3        29.92R
Kirksville     CLOUDY    61  58  90 SW3       29.96R
Ottumwa        CLOUDY    68  65  90 S6        29.92S
St Louis       PTCLDY    76  68  76 SE3       29.96F
$$


CITY           SKY/WX    TMP DP  RH WIND       PRES   REMARKS
Terre Haute    CLEAR     64  62  93 CALM      30.00F
Evansville     CLEAR     69  67  93 CALM      30.00R
Indianapolis   PTCLDY    72  62  71 E7        30.01S
Lafayette      CLEAR     65  62  90 CALM      30.01S
Madison        CLEAR     62  60  93 CALM      29.97F
Milwaukee      CLEAR     67  58  72 CALM      30.00F
$$






USA.gov is the U.S. government's official web portal to all federal, state and local government web resources and services.